Regional Weather Roundup
Issued by NWS Huntsville, AL

Home | Current Version | Previous Version | Text Only | Print | Product List | Glossary On
Versions: 1 2 3 4 5 6 7 8 9 10 11 12 13 14 15 16 17 18 19 20 21 22 23 24 25 26 27 28 29 30 31 32 33 34 35 36 37 38 39 40 41 42 43 44 45 46 47 48 49 50
000
ASUS44 KHUN 091810
RWRHUN

WEATHER ROUNDUP FOR THE TENNESSEE VALLEY
NATIONAL WEATHER SERVICE HUNTSVILLE AL
1200 PM CST TUE FEB 09 2016

ALZ001>004-091900-
NORTHWEST ALABAMA

CITY           SKY/WX    TMP DP  RH WIND       PRES   REMARKS
COURTLAND HCN    N/A     28 N/A N/A NW13        N/A  WCI  18
RUSSELLVILLE     N/A     32 N/A N/A MISG        N/A
SHOALS AIRPORT CLOUDY    30  20  66 NW8       29.97S WCI  22
6HR MIN TEMP:  29; 6HR MAX TEMP:  32; 6HR PCP: TRACE;

SHOALS TVA RES   N/A     28 N/A N/A MISG        N/A
$$

ALZ005>007-016-091900-
NORTH CENTRAL ALABAMA

CITY           SKY/WX    TMP DP  RH WIND       PRES   REMARKS
CULLMAN AG STN   N/A     30 N/A N/A W9          N/A  WCI  22
DECATUR AP     CLOUDY    29  18  63 NW16      29.95S WCI  17
6HR MIN TEMP:  27; 6HR MAX TEMP:  32; 6HR PCP: TRACE;

HUNTSVILLE AP  CLOUDY    32  18  56 W10       29.93S WCI  24
6HR MIN TEMP:  29; 6HR MAX TEMP:  34; 6HR PCP: TRACE;

HUN NWS/UAH      N/A     29  18  62 NW9         N/A  WCI  21
MERIDIANVILLE  SUNNY     30  18  59 NW14      29.92S WCI  20
REDSTONE ARSN  MIX PCPN  31  19  61 NW16      29.92S WCI  20
VINEMONT AP    FLURRIES  30  20  68 NW9       29.93F WCI  21
$$

ALZ008>010-091900-
NORTHEAST ALABAMA

CITY           SKY/WX    TMP DP  RH WIND       PRES   REMARKS
ALBERTVILLE    LGT SNOW  30  27  86 N14G23    29.89S WCI  20
FORT PAYNE     CLOUDY    32  19  59 W14       29.87F WCI  22
SCOTTSBORO AP  PTSUNNY   32  23  69 NW9G18    29.91S WCI  24
SCOTTSBORO HCN   N/A     30 N/A N/A MISG        N/A
VALLEY HEAD      N/A     30 N/A N/A MISG        N/A
$$

TNZ076-096-097-091900-
SOUTHEASTERN MIDDLE TENNESSEE

CITY           SKY/WX    TMP DP  RH WIND       PRES   REMARKS
TULLAHOMA      PTSUNNY   25  23  93 NW14      29.87S WCI  13
WINCHESTER     CLOUDY    27  21  80 VRB7      29.87S WCI  19
$$

...SURROUNDING SITES...

CITY           SKY/WX    TMP DP  RH WIND       PRES   REMARKS
ATLANTA        CLOUDY    36  17  46 W12G25    29.83F WCI  28
ANNISTON       CLOUDY    35  16  45 W16G29    29.92S WCI  25
BIRMINGHAM     FLURRIES  35  18  49 NW14      29.95F WCI  26
CHATTANOOGA    FLURRIES  32  20  61 W14       29.86F WCI  22
DALTON         NOT AVBL
GADSDEN        FLURRIES  33  22  63 NW13      29.93S WCI  24
GOLDEN TRNGL   MOSUNNY   43  16  33 W9G18     29.98F
HALEYVILLE     CLOUDY    32  19  58 VRB7      29.94F WCI  26
JACKSON TN     LGT SNOW  27  22  81 N12       30.01R WCI  17
MEMPHIS        PTSUNNY   39  14  36 N16G30    30.02S WCI  30
NASHVILLE      LGT SNOW  27  20  75 W12       29.92S VSB 3/4 WCI  17
OXFORD MS      FAIR      37  10  32 NW18G29   30.02S WCI  27
ROME           LGT SNOW  32  27  81 W8        29.86S WCI  25
TUPELO         MOSUNNY   40  10  29 W16G28    29.98F WCI  31
TUSCALOOSA     MOSUNNY   42  13  30 W18G28    29.99F
$$

...GULF COAST WEATHER...

CITY           SKY/WX    TMP DP  RH WIND       PRES   REMARKS
GULFPORT       SUNNY     52  16  24 W16G22    30.09F
PASCAGOULA     SUNNY     53  17  24 NW15G21   30.08F
MOBILE         SUNNY     49  17  28 W13G23    30.06F
GULF SHORES    CLEAR     49  18  29 W16G35    30.06F
PENSACOLA      SUNNY     49  15  25 NW10G23   30.04F
DESTIN         SUNNY     51  16  24 VRB7G21   30.02F
PANAMA CITY    SUNNY     52  26  36 W29       30.00F
APPALACHICOLA  SUNNY     55  29  36 W24G36    30.00F
$$




USA.gov is the U.S. government's official web portal to all federal, state and local government web resources and services.